Time,TemperatureF,DewpointF,PressureIn,WindDirection,WindDirectionDegrees,WindSpeedMPH,WindSpeedGustMPH,Humidity,HourlyPrecipIn,Conditions,Clouds,dailyrainin,SoftwareType,DateUTC
2014-12-22 00:00:00,31.1,24.1,30.40,NNE,18,0.0,1.0,75,0.00,CLR,OVC,0.00,WeatherDisplay:10.37,2014-12-22 05:00:00,
2014-12-22 00:10:00,31.1,24.1,30.40,NW,324,0.0,2.0,75,0.00,CLR,OVC,0.00,WeatherDisplay:10.37,2014-12-22 05:10:00,
2014-12-22 00:20:00,31.1,24.1,30.40,NW,319,2.0,7.0,75,0.00,CLR,OVC,0.00,WeatherDisplay:10.37,2014-12-22 05:20:00,
2014-12-22 00:25:00,31.1,24.1,30.40,NNW,333,3.0,7.0,75,0.00,CLR,OVC,0.00,WeatherDisplay:10.37,2014-12-22 05:25:00,
2014-12-22 00:30:00,31.1,24.1,30.40,NNW,333,2.0,6.0,75,0.00,CLR,OVC,0.00,WeatherDisplay:10.37,2014-12-22 05:30:00,
2014-12-22 00:40:00,31.1,24.1,30.40,North,351,0.0,2.0,75,0.00,CLR,OVC,0.00,WeatherDisplay:10.37,2014-12-22 05:40:00,
2014-12-22 00:45:00,31.1,24.1,30.41,North,2,0.0,0.0,75,0.00,CLR,OVC,0.00,WeatherDisplay:10.37,2014-12-22 05:45:00,
2014-12-22 00:50:00,31.1,24.1,30.41,NNE,18,0.0,1.0,75,0.00,CLR,OVC,0.00,WeatherDisplay:10.37,2014-12-22 05:50:00,
2014-12-22 01:00:00,31.1,24.1,30.41,North,359,0.0,0.0,75,0.00,CLR,OVC,0.00,WeatherDisplay:10.37,2014-12-22 06:00:00,
2014-12-22 01:05:00,31.1,24.1,30.39,North,354,0.0,0.0,75,0.00,CLR,OVC,0.00,WeatherDisplay:10.37,2014-12-22 06:05:00,
2014-12-22 01:10:00,31.1,24.1,30.39,NNW,345,0.0,0.0,75,0.00,CLR,OVC,0.00,WeatherDisplay:10.37,2014-12-22 06:10:00,
2014-12-22 01:15:00,31.1,24.1,30.39,NNW,340,0.0,2.0,75,0.00,CLR,OVC,0.00,WeatherDisplay:10.37,2014-12-22 06:15:00,
2014-12-22 01:20:00,31.1,24.1,30.39,North,358,0.0,3.0,75,0.00,CLR,OVC,0.00,WeatherDisplay:10.37,2014-12-22 06:20:00,
2014-12-22 01:30:00,31.1,24.1,30.40,NNE,25,0.0,0.0,75,0.00,CLR,OVC,0.00,WeatherDisplay:10.37,2014-12-22 06:30:00,
2014-12-22 01:40:00,31.1,24.1,30.40,NNW,342,1.0,5.0,75,0.00,CLR,OVC,0.00,WeatherDisplay:10.37,2014-12-22 06:40:00,
2014-12-22 01:45:00,31.1,24.1,30.41,NNW,327,1.0,3.0,75,0.00,CLR,OVC,0.00,WeatherDisplay:10.37,2014-12-22 06:45:00,
2014-12-22 01:50:00,31.1,24.1,30.41,NNW,337,1.0,2.0,75,0.00,CLR,OVC,0.00,WeatherDisplay:10.37,2014-12-22 06:50:00,
2014-12-22 02:00:00,31.1,24.1,30.41,North,351,1.0,2.0,75,0.00,CLR,OVC,0.00,WeatherDisplay:10.37,2014-12-22 07:00:00,
2014-12-22 02:05:00,31.1,24.1,30.40,NNW,332,1.0,5.0,75,0.00,CLR,OVC,0.00,WeatherDisplay:10.37,2014-12-22 07:05:00,
2014-12-22 02:10:00,31.1,24.1,30.40,NNW,337,2.0,4.0,75,0.00,CLR,OVC,0.00,WeatherDisplay:10.37,2014-12-22 07:10:00,
2014-12-22 02:15:00,31.1,24.1,30.40,NNW,343,1.0,4.0,75,0.00,CLR,OVC,0.00,WeatherDisplay:10.37,2014-12-22 07:15:00,
2014-12-22 02:25:00,31.1,24.1,30.41,North,9,1.0,2.0,75,0.00,CLR,OVC,0.00,WeatherDisplay:10.37,2014-12-22 07:25:00,
2014-12-22 02:30:00,31.1,24.1,30.41,North,4,0.0,2.0,75,0.00,CLR,OVC,0.00,WeatherDisplay:10.37,2014-12-22 07:30:00,
2014-12-22 02:35:00,31.1,24.1,30.41,NNW,344,0.0,2.0,75,0.00,CLR,OVC,0.00,WeatherDisplay:10.37,2014-12-22 07:35:00,
2014-12-22 02:40:00,31.1,24.1,30.41,North,9,0.0,0.0,75,0.00,CLR,OVC,0.00,WeatherDisplay:10.37,2014-12-22 07:40:00,
2014-12-22 02:45:00,31.1,24.1,30.40,North,7,1.0,4.0,75,0.00,CLR,OVC,0.00,WeatherDisplay:10.37,2014-12-22 07:45:00,
2014-12-22 02:50:00,31.1,24.1,30.40,North,350,1.0,6.0,75,0.00,CLR,OVC,0.00,WeatherDisplay:10.37,2014-12-22 07:50:00,
2014-12-22 03:00:00,31.1,24.1,30.40,North,9,1.0,0.0,75,0.00,CLR,OVC,0.00,WeatherDisplay:10.37,2014-12-22 08:00:00,
2014-12-22 03:05:00,31.1,24.1,30.40,NNE,23,0.0,0.0,75,0.00,CLR,OVC,0.00,WeatherDisplay:10.37,2014-12-22 08:05:00,
2014-12-22 03:10:00,31.1,24.1,30.40,North,352,0.0,0.0,75,0.00,CLR,OVC,0.00,WeatherDisplay:10.37,2014-12-22 08:10:00,
2014-12-22 03:15:00,31.1,24.1,30.40,NNW,336,0.0,2.0,75,0.00,CLR,OVC,0.00,WeatherDisplay:10.37,2014-12-22 08:15:00,
2014-12-22 03:20:00,31.1,24.1,30.40,NNW,338,1.0,5.0,75,0.00,CLR,OVC,0.00,WeatherDisplay:10.37,2014-12-22 08:20:00,
2014-12-22 03:25:00,31.1,24.1,30.40,NNW,340,1.0,4.0,75,0.00,CLR,OVC,0.00,WeatherDisplay:10.37,2014-12-22 08:25:00,
2014-12-22 03:30:00,31.1,24.1,30.40,NNW,346,1.0,1.0,75,0.00,CLR,OVC,0.00,WeatherDisplay:10.37,2014-12-22 08:30:00,
2014-12-22 03:40:00,31.1,24.1,30.40,NNW,338,0.0,0.0,75,0.00,CLR,OVC,0.00,WeatherDisplay:10.37,2014-12-22 08:40:00,
2014-12-22 03:45:00,31.1,24.1,30.40,North,4,0.0,2.0,75,0.00,CLR,OVC,0.00,WeatherDisplay:10.37,2014-12-22 08:45:00,
2014-12-22 03:50:00,31.1,24.1,30.40,NE,38,0.0,2.0,75,0.00,CLR,OVC,0.00,WeatherDisplay:10.37,2014-12-22 08:50:00,
2014-12-22 04:00:00,31.1,24.1,30.40,NNE,18,0.0,2.0,75,0.00,CLR,OVC,0.00,WeatherDisplay:10.37,2014-12-22 09:00:00,
2014-12-22 04:05:00,31.1,24.1,30.39,NNE,23,0.0,2.0,75,0.00,CLR,OVC,0.00,WeatherDisplay:10.37,2014-12-22 09:05:00,
2014-12-22 04:10:00,31.1,24.1,30.39,NE,42,0.0,2.0,75,0.00,CLR,OVC,0.00,WeatherDisplay:10.37,2014-12-22 09:10:00,
2014-12-22 04:15:00,31.1,24.1,30.39,NNE,26,0.0,0.0,75,0.00,CLR,OVC,0.00,WeatherDisplay:10.37,2014-12-22 09:15:00,
2014-12-22 04:25:00,31.1,24.1,30.39,NNW,342,1.0,5.0,75,0.00,CLR,OVC,0.00,WeatherDisplay:10.37,2014-12-22 09:25:00,
2014-12-22 04:30:00,31.1,24.1,30.39,NNE,21,2.0,3.0,75,0.00,CLR,OVC,0.00,WeatherDisplay:10.37,2014-12-22 09:30:00,
2014-12-22 04:40:00,31.1,24.1,30.39,NNW,329,2.0,6.0,75,0.00,CLR,OVC,0.00,WeatherDisplay:10.37,2014-12-22 09:40:00,
2014-12-22 04:45:00,31.1,24.1,30.40,North,352,2.0,3.0,75,0.00,CLR,OVC,0.00,WeatherDisplay:10.37,2014-12-22 09:45:00,
2014-12-22 04:50:00,31.1,24.1,30.40,North,6,1.0,3.0,75,0.00,CLR,OVC,0.00,WeatherDisplay:10.37,2014-12-22 09:50:00,
2014-12-22 05:00:00,31.1,24.1,30.40,North,351,1.0,4.0,75,0.00,CLR,OVC,0.00,WeatherDisplay:10.37,2014-12-22 10:00:00,
2014-12-22 05:10:00,31.1,24.1,30.40,NNE,23,1.0,1.0,75,0.00,CLR,OVC,0.00,WeatherDisplay:10.37,2014-12-22 10:10:00,
2014-12-22 05:15:00,31.1,24.1,30.40,North,3,1.0,2.0,75,0.00,CLR,OVC,0.00,WeatherDisplay:10.37,2014-12-22 10:15:00,
2014-12-22 05:20:00,31.1,24.1,30.40,NNW,341,1.0,2.0,75,0.00,CLR,OVC,0.00,WeatherDisplay:10.37,2014-12-22 10:20:00,
2014-12-22 05:25:00,31.1,24.1,30.41,North,9,0.0,2.0,75,0.00,CLR,OVC,0.00,WeatherDisplay:10.37,2014-12-22 10:25:00,
2014-12-22 05:30:00,31.1,24.1,30.41,North,3,0.0,0.0,75,0.00,CLR,OVC,0.00,WeatherDisplay:10.37,2014-12-22 10:30:00,
2014-12-22 05:35:00,31.1,24.1,30.41,North,351,0.0,1.0,75,0.00,CLR,OVC,0.00,WeatherDisplay:10.37,2014-12-22 10:35:00,
2014-12-22 05:40:00,31.1,24.1,30.41,North,360,1.0,7.0,75,0.00,CLR,OVC,0.00,WeatherDisplay:10.37,2014-12-22 10:40:00,
2014-12-22 05:45:00,31.1,24.1,30.41,North,9,1.0,7.0,75,0.00,CLR,OVC,0.00,WeatherDisplay:10.37,2014-12-22 10:45:00,
2014-12-22 05:50:00,31.1,24.1,30.41,NNE,22,1.0,4.0,75,0.00,CLR,OVC,0.00,WeatherDisplay:10.37,2014-12-22 10:50:00,
2014-12-22 06:00:00,31.1,24.1,30.41,NNW,346,1.0,6.0,75,0.00,CLR,OVC,0.00,WeatherDisplay:10.37,2014-12-22 11:00:00,
2014-12-22 06:05:00,31.1,24.1,30.43,NNW,338,1.0,6.0,75,0.00,CLR,OVC,0.00,WeatherDisplay:10.37,2014-12-22 11:05:00,
2014-12-22 06:10:00,31.1,24.1,30.43,NNW,347,1.0,2.0,75,0.00,CLR,OVC,0.00,WeatherDisplay:10.37,2014-12-22 11:10:00,
2014-12-22 06:15:00,31.1,24.1,30.43,North,0,1.0,2.0,75,0.00,CLR,OVC,0.00,WeatherDisplay:10.37,2014-12-22 11:15:00,
2014-12-22 06:20:00,31.1,24.1,30.43,NNW,332,3.0,6.0,75,0.00,CLR,OVC,0.00,WeatherDisplay:10.37,2014-12-22 11:20:00,
2014-12-22 06:25:00,31.1,24.1,30.42,NW,322,3.0,9.0,75,0.00,CLR,OVC,0.00,WeatherDisplay:10.37,2014-12-22 11:25:00,
2014-12-22 06:30:00,31.1,24.1,30.42,NNW,332,3.0,9.0,75,0.00,CLR,OVC,0.00,WeatherDisplay:10.37,2014-12-22 11:30:00,
2014-12-22 06:40:00,31.1,24.1,30.42,North,353,2.0,3.0,75,0.00,CLR,OVC,0.00,WeatherDisplay:10.37,2014-12-22 11:40:00,
2014-12-22 06:45:00,31.1,24.1,30.42,NE,36,1.0,0.0,75,0.00,CLR,OVC,0.00,WeatherDisplay:10.37,2014-12-22 11:45:00,
2014-12-22 06:50:00,31.1,24.1,30.42,NNE,27,0.0,3.0,75,0.00,CLR,OVC,0.00,WeatherDisplay:10.37,2014-12-22 11:50:00,
2014-12-22 07:00:00,31.1,24.1,30.42,NNW,346,1.0,2.0,75,0.00,CLR,OVC,0.00,WeatherDisplay:10.37,2014-12-22 12:00:00,
2014-12-22 07:05:00,31.1,24.1,30.42,North,353,1.0,2.0,75,0.00,CLR,OVC,0.00,WeatherDisplay:10.37,2014-12-22 12:05:00,
2014-12-22 07:10:00,31.1,24.1,30.42,North,356,0.0,0.0,75,0.00,CLR,OVC,0.00,WeatherDisplay:10.37,2014-12-22 12:10:00,
2014-12-22 07:15:00,31.1,24.1,30.42,NNE,24,0.0,0.0,75,0.00,CLR,OVC,0.00,WeatherDisplay:10.37,2014-12-22 12:15:00,
2014-12-22 07:20:00,31.1,24.1,30.42,NNE,13,0.0,2.0,75,0.00,CLR,OVC,0.00,WeatherDisplay:10.37,2014-12-22 12:20:00,
2014-12-22 07:25:00,31.1,24.1,30.42,North,349,0.0,2.0,75,0.00,CLR,OVC,0.00,WeatherDisplay:10.37,2014-12-22 12:25:00,
2014-12-22 07:30:00,31.1,24.1,30.42,NNW,341,2.0,6.0,75,0.00,CLR,OVC,0.00,WeatherDisplay:10.37,2014-12-22 12:30:00,
2014-12-22 07:40:00,31.1,24.1,30.42,North,350,1.0,7.0,75,0.00,CLR,OVC,0.00,WeatherDisplay:10.37,2014-12-22 12:40:00,
2014-12-22 07:50:00,31.1,24.1,30.44,NNW,342,1.0,3.0,75,0.00,CLR,OVC,0.00,WeatherDisplay:10.37,2014-12-22 12:50:00,
2014-12-22 08:00:00,31.1,24.1,30.44,NNW,331,1.0,2.0,75,0.00,CLR,OVC,0.00,WeatherDisplay:10.37,2014-12-22 13:00:00,
2014-12-22 08:10:00,31.1,24.1,30.45,North,360,1.0,1.0,75,0.00,CLR,OVC,0.00,WeatherDisplay:10.37,2014-12-22 13:10:00,
2014-12-22 08:15:00,31.1,24.1,30.45,NNW,335,1.0,2.0,75,0.00,CLR,OVC,0.00,WeatherDisplay:10.37,2014-12-22 13:15:00,
2014-12-22 08:20:00,31.1,24.1,30.45,NNW,329,1.0,2.0,75,0.00,CLR,OVC,0.00,WeatherDisplay:10.37,2014-12-22 13:20:00,
2014-12-22 08:25:00,31.1,24.1,30.44,NW,320,1.0,6.0,75,0.00,CLR,OVC,0.00,WeatherDisplay:10.37,2014-12-22 13:25:00,
2014-12-22 08:30:00,31.1,24.1,30.44,NW,308,2.0,6.0,75,0.00,CLR,OVC,0.00,WeatherDisplay:10.37,2014-12-22 13:30:00,
2014-12-22 08:35:00,31.1,24.1,30.44,NW,311,2.0,6.0,75,0.00,CLR,OVC,0.00,WeatherDisplay:10.37,2014-12-22 13:35:00,
2014-12-22 08:40:00,31.1,24.1,30.44,NNW,342,2.0,2.0,75,0.00,CLR,OVC,0.00,WeatherDisplay:10.37,2014-12-22 13:40:00,
2014-12-22 08:50:00,31.1,24.1,30.44,NNW,346,2.0,5.0,75,0.00,CLR,OVC,0.00,WeatherDisplay:10.37,2014-12-22 13:50:00,
2014-12-22 09:00:00,31.1,24.1,30.44,NW,316,2.0,3.0,75,0.00,CLR,OVC,0.00,WeatherDisplay:10.37,2014-12-22 14:00:00,
2014-12-22 09:05:00,31.1,24.1,30.45,NW,307,3.0,6.0,75,0.00,CLR,OVC,0.00,WeatherDisplay:10.37,2014-12-22 14:05:00,
2014-12-22 09:10:00,31.1,24.1,30.45,NW,315,3.0,6.0,75,0.00,CLR,OVC,0.00,WeatherDisplay:10.37,2014-12-22 14:10:00,
2014-12-22 09:15:00,31.1,24.1,30.45,NW,321,1.0,2.0,75,0.00,CLR,OVC,0.00,WeatherDisplay:10.37,2014-12-22 14:15:00,
2014-12-22 09:20:00,31.1,24.1,30.45,NNW,327,1.0,6.0,75,0.00,CLR,OVC,0.00,WeatherDisplay:10.37,2014-12-22 14:20:00,
2014-12-22 09:30:00,31.1,24.1,30.45,NNW,341,1.0,5.0,75,0.00,CLR,OVC,0.00,WeatherDisplay:10.37,2014-12-22 14:30:00,
2014-12-22 09:40:00,31.1,24.1,30.45,NW,325,2.0,6.0,75,0.00,CLR,OVC,0.00,WeatherDisplay:10.37,2014-12-22 14:40:00,
2014-12-22 09:45:00,31.1,24.1,30.44,NW,324,2.0,6.0,75,0.00,CLR,OVC,0.00,WeatherDisplay:10.37,2014-12-22 14:45:00,
2014-12-22 09:50:00,31.1,24.1,30.44,NNW,329,2.0,2.0,75,0.00,CLR,OVC,0.00,WeatherDisplay:10.37,2014-12-22 14:50:00,
2014-12-22 09:55:00,31.1,24.1,30.44,NNW,340,1.0,3.0,75,0.00,CLR,OVC,0.00,WeatherDisplay:10.37,2014-12-22 14:55:00,
2014-12-22 10:00:00,31.1,24.1,30.44,NNW,345,2.0,6.0,75,0.00,CLR,OVC,0.00,WeatherDisplay:10.37,2014-12-22 15:00:00,
2014-12-22 10:05:00,31.1,24.1,30.45,NW,323,3.0,6.0,75,0.00,CLR,OVC,0.00,WeatherDisplay:10.37,2014-12-22 15:05:00,
2014-12-22 10:10:00,31.1,24.1,30.45,NW,309,3.0,6.0,75,0.00,CLR,OVC,0.00,WeatherDisplay:10.37,2014-12-22 15:10:00,
2014-12-22 10:15:00,31.1,24.1,30.45,NW,317,1.0,2.0,75,0.00,CLR,OVC,0.00,WeatherDisplay:10.37,2014-12-22 15:15:00,
2014-12-22 10:20:00,31.1,24.1,30.45,NNW,341,1.0,1.0,75,0.00,CLR,OVC,0.00,WeatherDisplay:10.37,2014-12-22 15:20:00,
2014-12-22 10:25:00,31.1,24.1,30.45,North,3,0.0,0.0,75,0.00,CLR,OVC,0.00,WeatherDisplay:10.37,2014-12-22 15:25:00,
2014-12-22 10:30:00,31.1,24.1,30.45,NNE,13,0.0,2.0,75,0.00,CLR,OVC,0.00,WeatherDisplay:10.37,2014-12-22 15:30:00,
2014-12-22 10:40:00,31.1,24.1,30.45,NNE,18,0.0,2.0,75,0.00,CLR,OVC,0.00,WeatherDisplay:10.37,2014-12-22 15:40:00,
2014-12-22 10:45:00,31.1,24.1,30.44,North,351,1.0,3.0,75,0.00,CLR,OVC,0.00,WeatherDisplay:10.37,2014-12-22 15:45:00,
2014-12-22 10:50:00,31.1,24.1,30.44,North,3,1.0,1.0,75,0.00,CLR,OVC,0.00,WeatherDisplay:10.37,2014-12-22 15:50:00,
2014-12-22 11:00:00,31.1,24.1,30.44,NNE,27,0.0,2.0,75,0.00,CLR,OVC,0.00,WeatherDisplay:10.37,2014-12-22 16:00:00,
2014-12-22 11:05:00,31.1,24.1,30.43,NNE,33,0.0,2.0,75,0.00,CLR,OVC,0.00,WeatherDisplay:10.37,2014-12-22 16:05:00,
2014-12-22 11:10:00,31.1,24.1,30.43,NNE,25,0.0,2.0,75,0.00,CLR,OVC,0.00,WeatherDisplay:10.37,2014-12-22 16:10:00,
2014-12-22 11:15:00,31.1,24.1,30.43,North,352,0.0,3.0,75,0.00,CLR,OVC,0.00,WeatherDisplay:10.37,2014-12-22 16:15:00,
2014-12-22 11:20:00,31.1,24.1,30.43,NNW,329,0.0,0.0,75,0.00,CLR,OVC,0.00,WeatherDisplay:10.37,2014-12-22 16:20:00,
2014-12-22 11:25:00,31.1,24.1,30.42,North,359,0.0,1.0,75,0.00,CLR,OVC,0.00,WeatherDisplay:10.37,2014-12-22 16:25:00,
2014-12-22 11:30:00,31.1,24.1,30.42,ENE,61,0.0,2.0,75,0.00,CLR,OVC,0.00,WeatherDisplay:10.37,2014-12-22 16:30:00,
2014-12-22 11:35:00,31.1,24.1,30.42,East,79,0.0,1.0,75,0.00,CLR,OVC,0.00,WeatherDisplay:10.37,2014-12-22 16:35:00,
2014-12-22 11:40:00,31.1,24.1,30.42,North,355,0.0,0.0,75,0.00,CLR,OVC,0.00,WeatherDisplay:10.37,2014-12-22 16:40:00,
2014-12-22 11:45:00,31.1,24.1,30.41,North,354,1.0,4.0,75,0.00,CLR,OVC,0.00,WeatherDisplay:10.37,2014-12-22 16:45:00,
2014-12-22 11:50:00,31.1,24.1,30.41,North,349,1.0,4.0,75,0.00,CLR,OVC,0.00,WeatherDisplay:10.37,2014-12-22 16:50:00,
2014-12-22 12:00:00,31.1,24.1,30.41,NNW,327,1.0,3.0,75,0.00,CLR,OVC,0.00,WeatherDisplay:10.37,2014-12-22 17:00:00,
2014-12-22 12:10:00,31.1,24.1,30.40,ENE,77,1.0,2.0,75,0.00,CLR,OVC,0.00,WeatherDisplay:10.37,2014-12-22 17:10:00,
2014-12-22 12:15:00,31.1,24.1,30.40,East,84,1.0,2.0,75,0.00,CLR,OVC,0.00,WeatherDisplay:10.37,2014-12-22 17:15:00,
2014-12-22 12:20:00,31.1,24.1,30.40,ENE,64,1.0,3.0,75,0.00,CLR,OVC,0.00,WeatherDisplay:10.37,2014-12-22 17:20:00,
2014-12-22 12:25:00,31.1,24.1,30.39,NE,50,1.0,2.0,75,0.00,CLR,OVC,0.00,WeatherDisplay:10.37,2014-12-22 17:25:00,
2014-12-22 12:30:00,31.1,24.1,30.39,NE,49,1.0,1.0,75,0.00,CLR,OVC,0.00,WeatherDisplay:10.37,2014-12-22 17:30:00,
2014-12-22 12:40:00,31.1,24.1,30.39,SSE,158,1.0,5.0,75,0.00,CLR,OVC,0.00,WeatherDisplay:10.37,2014-12-22 17:40:00,
2014-12-22 12:45:00,31.1,24.1,30.39,West,273,0.0,3.0,75,0.00,CLR,OVC,0.00,WeatherDisplay:10.37,2014-12-22 17:45:00,
2014-12-22 12:50:00,31.1,24.1,30.39,West,270,0.0,3.0,75,0.00,CLR,OVC,0.00,WeatherDisplay:10.37,2014-12-22 17:50:00,
2014-12-22 13:00:00,31.1,24.1,30.39,WNW,303,0.0,2.0,75,0.00,CLR,OVC,0.00,WeatherDisplay:10.37,2014-12-22 18:00:00,
2014-12-22 13:10:00,31.1,24.1,30.38,NNW,335,1.0,3.0,75,0.00,CLR,OVC,0.00,WeatherDisplay:10.37,2014-12-22 18:10:00,
2014-12-22 13:15:00,31.1,24.1,30.38,NNW,330,0.0,2.0,75,0.00,CLR,OVC,0.00,WeatherDisplay:10.37,2014-12-22 18:15:00,
2014-12-22 13:20:00,31.1,24.1,30.38,North,352,1.0,3.0,75,0.00,CLR,OVC,0.00,WeatherDisplay:10.37,2014-12-22 18:20:00,
2014-12-22 13:30:00,31.1,24.1,30.39,NNE,18,1.0,2.0,75,0.00,CLR,OVC,0.00,WeatherDisplay:10.37,2014-12-22 18:30:00,
2014-12-22 13:40:00,31.1,24.1,30.39,NE,36,1.0,2.0,75,0.00,CLR,OVC,0.00,WeatherDisplay:10.37,2014-12-22 18:40:00,
2014-12-22 13:45:00,31.1,24.1,30.38,NNE,25,1.0,2.0,75,0.00,CLR,OVC,0.00,WeatherDisplay:10.37,2014-12-22 18:45:00,
2014-12-22 13:50:00,31.1,24.1,30.38,NE,51,1.0,3.0,75,0.00,CLR,OVC,0.00,WeatherDisplay:10.37,2014-12-22 18:50:00,
2014-12-22 14:00:00,31.1,24.1,30.38,NE,39,1.0,3.0,75,0.00,CLR,OVC,0.00,WeatherDisplay:10.37,2014-12-22 19:00:00,
2014-12-22 14:05:00,31.1,24.1,30.38,ENE,73,0.0,3.0,75,0.00,CLR,OVC,0.00,WeatherDisplay:10.37,2014-12-22 19:05:00,
2014-12-22 14:10:00,31.1,24.1,30.38,NE,36,0.0,1.0,75,0.00,CLR,OVC,0.00,WeatherDisplay:10.37,2014-12-22 19:10:00,
2014-12-22 14:15:00,31.1,24.1,30.38,North,11,0.0,0.0,75,0.00,CLR,OVC,0.00,WeatherDisplay:10.37,2014-12-22 19:15:00,
2014-12-22 14:20:00,31.1,24.1,30.38,NE,36,0.0,1.0,75,0.00,CLR,OVC,0.00,WeatherDisplay:10.37,2014-12-22 19:20:00,
2014-12-22 14:25:00,31.1,24.1,30.40,NNE,30,0.0,2.0,75,0.00,CLR,OVC,0.00,WeatherDisplay:10.37,2014-12-22 19:25:00,
2014-12-22 14:30:00,31.1,24.1,30.40,NNE,25,0.0,1.0,75,0.00,CLR,OVC,0.00,WeatherDisplay:10.37,2014-12-22 19:30:00,
2014-12-22 14:40:00,31.1,24.1,30.40,NE,42,0.0,2.0,75,0.00,CLR,OVC,0.00,WeatherDisplay:10.37,2014-12-22 19:40:00,
2014-12-22 14:45:00,31.1,24.1,30.40,NNE,31,1.0,3.0,75,0.00,CLR,OVC,0.00,WeatherDisplay:10.37,2014-12-22 19:45:00,
2014-12-22 14:50:00,31.1,24.1,30.40,NNE,26,0.0,3.0,75,0.00,CLR,OVC,0.00,WeatherDisplay:10.37,2014-12-22 19:50:00,
2014-12-22 15:00:00,31.1,24.1,30.40,NNE,19,0.0,2.0,75,0.00,CLR,OVC,0.00,WeatherDisplay:10.37,2014-12-22 20:00:00,
2014-12-22 15:05:00,31.1,24.1,30.40,NE,41,0.0,2.0,75,0.00,CLR,OVC,0.00,WeatherDisplay:10.37,2014-12-22 20:05:00,
2014-12-22 15:10:00,31.1,24.1,30.40,ESE,103,0.0,0.0,75,0.00,CLR,OVC,0.00,WeatherDisplay:10.37,2014-12-22 20:10:00,
2014-12-22 15:15:00,31.1,24.1,30.40,ENE,64,0.0,2.0,75,0.00,CLR,OVC,0.00,WeatherDisplay:10.37,2014-12-22 20:15:00,
2014-12-22 15:20:00,31.1,24.1,30.40,North,9,0.0,2.0,75,0.00,CLR,OVC,0.00,WeatherDisplay:10.37,2014-12-22 20:20:00,
2014-12-22 15:30:00,31.1,24.1,30.40,NNW,327,1.0,2.0,75,0.00,CLR,OVC,0.00,WeatherDisplay:10.37,2014-12-22 20:30:00,
2014-12-22 15:40:00,31.1,24.1,30.40,NW,324,0.0,0.0,75,0.00,CLR,OVC,0.00,WeatherDisplay:10.37,2014-12-22 20:40:00,
2014-12-22 15:45:00,31.1,24.1,30.40,NNE,19,0.0,0.0,75,0.00,CLR,OVC,0.00,WeatherDisplay:10.37,2014-12-22 20:45:00,
2014-12-22 15:50:00,31.1,24.1,30.40,NE,36,0.0,0.0,75,0.00,CLR,OVC,0.00,WeatherDisplay:10.37,2014-12-22 20:50:00,
2014-12-22 16:00:00,31.1,24.1,30.40,NE,38,0.0,0.0,75,0.00,CLR,OVC,0.00,WeatherDisplay:10.37,2014-12-22 21:00:00,